Theta_e
312 314 321 316 315 314 316 317 318 316 312 312 316 315 315 315 313 313 313 313 312 312 311 307 304 302 300 300 302 304 305 304 305 305 305 305 305 308 309 309 309 307 306 306
312 314 314 311 312 313 314 316 319 315 309 311 315 314 315 312 311 310 311 311 310 311 309 305 303 301 300 300 303 305 304 304 304 303 303 303 304 307 309 311 309 306 306 307
314 314 310 312 312 314 315 318 319 316 313 309 311 324 319 312 310 311 311 310 309 310 310 306 303 302 300 302 304 304 304 304 304 304 303 305 308 310 311 311 309 306 307 308
312 311 312 313 315 314 317 312 312 312 315 324 312 337 322 314 312 309 311 311 310 308 309 306 303 301 301 303 304 304 304 303 304 303 303 304 308 308 309 312 311 307 307 309
313 312 313 314 314 313 316 310 311 311 314 313 316 322 331 312 315 312 313 311 309 308 308 305 303 299 301 302 304 304 304 304 304 303 303 305 309 309 310 313 313 311 311 310
310 307 310 312 307 308 309 311 311 311 314 324 314 318 337 324 316 311 311 310 308 308 306 304 300 299 302 302 304 305 305 304 304 304 303 306 307 307 310 311 313 316 315 315
310 310 308 308 311 309 310 312 330 333 324 328 312 315 326 316 310 308 312 311 308 306 305 302 300 299 302 303 304 304 304 304 304 303 302 305 308 309 309 312 313 313 317 318
312 313 310 308 311 313 311 313 322 334 325 317 311 318 322 311 309 309 308 311 309 306 304 303 301 299 302 303 304 304 304 304 303 303 303 304 308 309 310 312 315 314 314 316
310 309 307 306 307 309 310 312 309 312 306 316 317 314 313 309 309 309 309 309 310 307 304 303 300 298 302 303 304 303 304 304 304 304 303 303 308 309 311 311 312 315 316 318
311 314 308 307 307 307 309 307 313 313 324 323 318 314 320 312 310 309 311 310 310 309 305 303 300 298 301 302 303 302 303 304 304 305 303 302 307 309 311 312 311 313 316 317
310 313 310 308 310 311 308 310 309 311 313 319 320 320 312 310 309 310 310 310 310 309 306 303 300 297 300 301 302 303 303 304 303 304 302 302 306 305 309 310 312 313 313 315
309 312 314 311 307 306 307 310 310 317 314 310 310 318 308 307 306 307 308 308 309 308 307 304 300 297 299 301 302 303 303 304 303 304 303 300 302 306 307 308 309 309 309 311
309 316 317 312 308 305 309 309 309 307 308 311 319 319 307 306 306 307 308 308 307 306 305 302 300 297 298 301 302 303 302 303 302 302 303 301 300 304 307 307 307 307 309 311
308 310 317 321 318 311 309 310 309 310 315 315 312 316 314 310 308 308 307 307 307 306 304 303 300 298 297 299 302 303 302 302 301 301 302 301 301 303 306 305 305 306 306 308
308 313 310 311 308 308 310 310 310 311 313 315 316 312 314 313 309 309 309 307 305 304 304 304 302 299 297 298 300 302 302 300 300 300 300 302 301 301 303 305 304 305 304 305
307 313 306 308 307 307 308 310 310 310 311 312 310 310 309 311 310 309 308 306 305 306 305 305 303 300 298 297 299 301 302 300 299 299 299 301 302 300 301 303 305 304 305 305
310 312 314 319 306 309 315 311 309 309 309 310 312 311 311 311 310 310 309 306 306 306 306 305 304 302 298 297 298 301 301 299 298 298 298 299 299 299 299 299 300 303 302 303
309 311 313 317 309 320 317 305 310 310 310 309 310 311 311 312 312 309 308 308 307 306 305 304 304 303 300 297 297 299 300 299 298 297 298 298 297 298 298 298 297 296 298 299
309 310 316 317 317 317 316 308 310 310 313 310 309 310 310 307 306 309 306 306 307 306 304 303 302 302 301 297 296 298 298 299 297 297 297 298 298 297 297 297 298 297 297 296
309 310 314 316 320 321 312 305 303 309 318 307 310 310 311 306 311 313 305 303 302 302 301 301 301 299 299 297 296 297 298 299 298 297 298 299 299 298 297 298 297 297 297 297
310 311 313 316 319 318 305 303 302 319 313 302 300 306 309 309 311 305 302 301 300 300 299 299 300 299 298 296 295 296 297 299 300 299 299 299 299 298 298 297 296 295 294 293
304 302 313 315 317 319 299 302 306 300 300 302 299 302 305 305 302 301 300 300 299 299 298 297 299 298 296 294 294 296 297 298 300 299 299 299 298 297 296 295 294 293 292 291
300 296 295 300 303 297 297 296 295 296 297 297 298 299 301 300 300 299 299 299 298 297 296 295 297 296 295 294 294 295 296 296 297 298 299 299 298 296 295 294 293 291 290 290
294 293 292 296 299 295 296 294 293 294 294 293 292 294 299 299 299 298 298 298 297 295 294 293 294 295 294 294 293 294 294 295 295 296 297 297 296 295 295 293 292 290 289 289
290 290 292 293 295 295 297 293 292 292 291 289 288 289 292 291 295 296 296 295 294 292 291 291 291 292 293 293 293 293 293 294 294 294 294 295 295 294 293 293 292 291 291 291
290 290 293 296 294 293 292 290 285 288 286 286 286 288 287 286 286 286 291 290 288 289 288 288 289 289 290 291 292 293 293 292 293 292 293 293 293 293 293 292 291 291 291 291
Wind_Speed
3 7 9 14 11 2 1 3 8 5 0 5 12 20 23 19 17 18 17 16 15 13 9 9 10 7 3 2 6 10 14 13 14 14 15 15 15 15 11 11 8 6 3 3
4 12 9 4 6 4 3 5 7 6 2 4 13 25 23 10 6 7 8 10 12 12 11 11 12 8 3 2 5 10 11 11 12 13 13 12 15 12 12 14 6 2 0 3
10 1 7 5 6 6 5 5 3 5 7 2 12 9 5 1 3 5 6 5 4 12 14 12 12 9 3 1 5 9 10 10 11 12 12 13 8 9 9 10 5 4 2 2
8 4 6 7 6 8 5 5 3 2 4 4 6 7 7 3 8 5 4 3 3 9 12 12 12 9 5 0 3 6 8 9 10 11 10 10 7 7 10 12 6 6 5 4
5 9 8 6 4 9 0 4 3 1 1 4 2 4 7 2 4 3 3 3 5 9 12 12 10 9 5 1 3 5 7 7 9 9 8 8 8 9 10 11 8 8 7 5
1 1 3 1 3 1 10 4 2 1 2 3 2 3 6 3 3 1 3 4 7 10 10 10 10 8 6 2 2 3 5 6 8 7 7 6 8 10 13 15 12 13 9 9
3 4 2 3 6 3 3 3 2 3 2 3 2 3 11 5 4 2 7 8 8 10 10 10 9 8 7 4 2 2 4 4 6 7 6 6 7 7 9 12 10 14 18 17
13 7 12 8 4 5 9 4 4 5 3 1 1 6 4 1 1 3 2 7 9 10 9 10 9 9 8 5 3 1 3 4 4 5 6 4 6 6 8 8 9 12 16 17
8 5 1 2 2 2 7 8 2 3 2 2 5 7 11 7 5 6 8 7 12 12 12 11 10 11 9 7 4 2 2 2 2 3 4 2 6 6 7 8 8 10 12 14
6 1 1 3 3 1 4 6 3 2 4 5 4 5 8 3 9 10 10 12 12 12 12 11 10 12 10 8 6 4 1 1 0 1 2 1 6 6 6 7 8 10 12 12
6 3 4 4 11 13 6 6 3 2 3 3 2 4 3 3 3 7 13 11 12 13 13 12 10 12 11 9 8 6 4 2 1 1 2 3 5 6 6 7 8 9 11 13
7 3 5 6 1 3 4 8 10 5 6 3 0 5 3 3 2 2 7 9 9 10 11 11 11 14 13 12 10 9 7 4 2 3 3 3 4 8 8 8 8 8 10 12
9 5 4 1 2 2 8 11 8 2 1 7 6 4 1 3 4 4 4 9 9 11 11 11 11 12 15 15 13 11 10 7 5 4 4 4 4 7 10 9 9 8 11 11
5 4 6 9 2 6 8 17 20 16 5 7 10 6 4 4 5 5 6 7 9 10 13 13 12 13 17 17 16 15 13 10 8 7 6 6 6 8 10 9 10 10 11 13
3 4 4 7 1 4 4 10 22 23 22 13 9 19 18 10 10 9 6 8 10 11 13 14 15 14 19 20 19 17 16 13 11 9 9 9 9 9 11 13 12 13 14 16
2 2 1 3 4 4 4 11 17 23 21 21 13 15 12 15 10 12 10 11 10 11 13 14 15 15 18 23 23 21 19 17 16 13 12 12 12 11 12 16 18 16 17 18
8 5 2 3 1 1 9 19 15 12 14 23 20 25 7 10 12 11 12 12 12 11 11 12 15 16 21 24 26 25 22 20 19 16 17 16 15 14 14 15 16 20 18 19
6 6 3 1 1 7 4 4 14 22 16 22 16 17 11 18 12 6 7 11 11 9 9 11 11 16 20 22 25 22 22 23 22 18 20 20 18 17 17 16 15 15 18 19
10 6 4 5 7 8 11 4 7 12 12 18 22 23 19 4 1 10 9 9 8 6 6 6 8 13 17 22 26 26 24 25 24 22 22 25 23 21 21 19 18 17 17 16
13 10 6 4 5 8 3 2 2 3 4 15 14 21 18 7 9 12 6 7 7 6 5 5 5 7 14 19 24 27 26 25 26 27 30 31 29 27 26 25 23 21 20 19
4 4 12 9 4 5 11 9 5 6 5 21 15 15 8 9 7 2 6 3 1 1 3 3 2 6 11 15 23 25 27 28 34 32 35 34 33 31 29 28 27 25 23 22
4 4 4 6 6 8 22 6 5 10 14 20 18 13 7 1 3 2 1 1 3 4 4 4 3 3 7 15 22 23 27 31 32 33 36 38 37 36 33 31 30 28 26 25
1 3 4 5 4 3 5 9 7 10 10 20 20 20 8 4 4 4 3 5 6 7 8 7 3 2 5 14 20 18 23 27 30 33 37 41 39 37 35 34 33 31 31 30
2 2 4 8 3 14 3 12 15 15 13 17 18 18 18 14 8 5 4 4 5 7 9 13 10 6 3 8 17 23 20 26 30 34 34 34 36 36 37 35 34 32 31 27
6 8 4 10 12 9 2 14 15 15 14 17 18 16 19 19 17 12 6 6 7 9 12 13 12 12 11 7 8 17 21 21 28 31 29 29 32 34 33 37 36 39 41 42
4 4 4 5 7 1 9 13 12 13 14 15 17 19 15 15 16 17 12 13 14 14 15 13 13 16 18 16 11 10 15 22 26 24 25 27 26 26 28 27 29 37 40 40
Wind_Direction
172 212 215 214 213 256 149 244 267 260 141 280 267 280 282 281 262 259 259 244 231 213 193 176 173 174 201 294 337 340 341 343 339 336 332 330 324 325 328 320 326 297 259 221
174 235 231 103 165 182 202 262 265 278 226 280 301 293 291 299 268 257 265 246 236 211 177 163 168 173 183 329 343 348 345 341 339 332 326 313 310 316 324 355 341 5 156 193
218 32 151 160 167 190 219 226 230 271 314 225 307 281 306 155 273 254 243 259 224 206 184 166 168 173 162 347 356 356 344 337 335 332 331 337 328 343 342 8 44 47 117 152
240 152 163 183 206 194 236 203 204 263 321 298 4 289 302 316 294 251 238 220 181 182 181 162 163 165 160 148 357 355 346 345 340 337 337 340 334 344 335 360 65 76 114 145
182 177 179 198 215 188 172 143 140 132 278 312 167 243 270 329 287 231 197 155 150 165 163 161 162 156 155 138 343 350 351 354 343 339 349 347 349 357 353 36 80 80 99 149
97 314 211 187 81 37 139 114 93 123 234 248 86 254 280 236 247 194 156 148 148 154 155 152 147 153 157 161 307 2 4 358 351 347 352 12 5 19 20 24 51 98 88 101
159 204 175 170 119 101 183 175 245 239 202 259 126 218 258 262 240 259 177 166 159 159 162 165 168 173 172 182 271 352 4 347 342 343 347 35 36 41 45 38 57 82 118 120
195 225 179 174 222 185 184 236 218 248 231 33 131 231 251 207 227 167 111 175 167 175 180 183 179 177 180 190 224 302 360 346 345 347 344 45 73 65 72 65 79 76 116 126
183 221 103 169 156 189 160 212 21 100 82 282 221 257 271 219 221 208 209 182 192 191 191 192 186 186 187 194 204 258 355 6 5 337 347 38 100 88 85 91 101 104 123 146
193 158 240 147 156 104 231 148 144 225 215 232 211 273 248 202 211 205 209 209 199 196 194 195 193 190 192 198 197 222 231 20 340 283 305 333 119 114 113 109 111 123 127 134
153 216 136 165 212 181 159 192 214 246 227 226 259 237 211 206 190 216 211 206 201 199 198 195 194 194 195 200 199 212 218 202 221 234 265 281 151 135 151 139 138 143 140 145
178 128 165 196 26 289 228 199 194 209 193 232 21 275 155 241 220 229 214 197 198 203 198 195 193 191 195 204 200 209 210 204 208 201 224 243 201 151 160 153 154 168 159 156
179 192 133 130 222 201 218 203 212 124 82 200 181 232 144 217 222 211 194 200 198 192 192 193 193 196 200 205 202 202 205 201 193 182 183 205 225 178 172 175 173 172 165 165
153 192 228 216 149 146 194 200 199 201 205 196 224 257 228 238 227 198 207 213 208 201 196 197 200 202 202 205 203 198 202 197 194 180 166 178 199 199 183 185 177 173 175 167
207 244 220 250 289 195 217 200 197 208 212 211 214 223 239 216 196 206 209 197 197 208 206 206 206 203 202 202 203 199 201 194 191 185 169 171 175 178 176 165 160 153 155 154
200 244 41 271 200 217 259 232 211 218 224 239 256 261 239 256 258 239 229 207 208 212 216 217 217 208 205 202 202 199 198 195 189 187 179 175 170 167 168 161 157 156 154 154
173 177 117 254 16 176 275 229 200 203 216 217 226 237 225 257 235 243 222 217 216 215 223 225 223 217 211 204 200 199 196 191 190 189 180 178 175 171 168 166 161 156 155 155
170 153 167 144 129 219 266 345 213 207 207 215 239 247 238 237 238 240 217 211 219 228 236 240 239 227 218 209 202 200 193 193 192 191 185 183 180 177 172 169 168 163 159 160
186 175 184 194 211 318 292 195 173 185 243 219 227 244 244 185 236 252 222 228 241 238 243 244 246 236 216 203 200 192 192 192 193 195 193 190 187 183 180 178 178 175 170 169
195 199 202 168 207 215 353 11 264 182 267 17 256 245 258 156 248 259 186 188 193 210 218 234 251 227 208 203 190 188 194 193 200 201 200 197 195 193 190 188 186 187 186 185
191 201 208 212 218 279 358 341 323 190 332 328 326 298 236 201 230 10 136 163 179 312 316 311 250 218 213 193 185 194 196 200 207 204 206 204 201 201 200 197 196 195 194 193
355 305 194 206 206 229 360 34 25 326 322 325 336 339 296 249 92 80 62 330 330 329 331 324 299 237 200 200 189 197 205 205 204 207 209 209 208 206 205 204 201 201 200 200
163 46 309 337 57 356 33 65 7 360 351 351 344 335 351 8 16 355 2 5 359 359 348 336 308 295 213 205 201 207 213 204 203 207 212 215 214 213 212 208 206 203 206 206
44 69 341 317 145 334 268 15 12 4 355 347 346 347 341 335 334 340 355 7 13 15 11 358 342 336 299 225 221 226 219 215 212 211 212 214 215 216 218 217 215 206 204 204
280 318 277 282 277 302 66 5 354 348 355 348 351 359 3 9 360 351 358 12 19 8 5 5 356 341 334 318 255 242 233 223 215 217 216 214 215 215 216 218 216 216 221 216
208 234 223 277 10 296 312 340 9 1 356 352 349 342 357 13 356 351 348 359 357 351 352 351 350 339 329 326 318 284 243 227 220 210 210 212 212 214 216 219 226 229 232 232